"Pseudo-MPEC" for ZTF03VS

Created 2019 Jun 15 19:10:05 UT using Find_Orb

Click here for an explanation of pseudo-MPECs

 
 Astrometry: 
     ZTF03VS  C2019 04 05Qe8A,0[xEjr4h*kK[lGBwk-*uas1Gk2)^rmAstrometry?K9cCM+F51
     ZTF03VS  C2019 04 05MWOTIwvGB)+E$OlIFXR*QE#V^AyeLL*]V^--4.O=9Gqw.@CgL'rqF51
     ZTF03VS  C2019 04 05^N0%'u,SYicqPJ+8T#+!?VRNPOoVANoI^NP3Z]m$!redacted;TKF51
     ZTF03VS  C2019 04 05JG%MR[l/3t_cCsdjh3N==aQ!.UVMd'Q1aclickX=BhereJLUyfB(F51
     ZTF03VS  C2019 06 04.35498018 05 40.28 -06 21 16.1    ~64Hq 21.03gUNEOCPI41
     ZTF03VS  C2019 06 04.38510018 05 37.64 -06 22 18.8    ~64Hq 20.38rUNEOCPI41
     ZTF03VS  C2019 06 04.38736018 05 37.43 -06 22 23.8    ~64Hq 20.36rUNEOCPI41
     ZTF03VS  C2019 06 04.38781018 05 37.38 -06 22 24.5    ~64Hq 20.44rUNEOCPI41
     ZTF03VS  C2019 06 04.39141018 05 37.07 -06 22 32.0    ~64Hq 20.38rUNEOCPI41
     ZTF03VS  C2019 06 04.39322018 05 36.94 -06 22 36.0    ~64Hq 20.30rUNEOCPI41
     ZTF03VS  C2019 06 04.39413018 05 36.86 -06 22 37.5    ~64Hq 20.30rUNEOCPI41
     ZTF03VS  C2019 06 04.39729118 05 36.55 -06 22 44.4    ~64Hq 20.47rUNEOCPI41
     ZTF03VS  C2019 06 04.39819018 05 36.51 -06 22 46.4    ~64Hq 20.45rUNEOCPI41
     ZTF03VS  C2019 06 04.39865018 05 36.45 -06 22 47.2    ~64Hq 20.39rUNEOCPI41
     ZTF03VS  C2019 06 04.39955018 05 36.37 -06 22 49.0    ~64Hq 20.31rUNEOCPI41
     ZTF03VS  C2019 06 04.40135018 05 36.21 -06 22 52.8    ~64Hq 20.41rUNEOCPI41
     ZTF03VS  C2019 06 04.40270918 05 36.09 -06 22 56.0    ~64Hq 20.38rUNEOCPI41
     ZTF03VS  C2019 06 04.40406018 05 35.98 -06 22 58.7    ~64Hq 20.33rUNEOCPI41
     ZTF03VS  C2019 06 04.42123018 05 34.46 -06 23 34.4    ~64Hq 20.12rUNEOCPI41
     ZTF03VS  C2019 06 04.42484018 05 34.17 -06 23 42.3    ~64Hq 20.39rUNEOCPI41
     ZTF03VS  C2019 06 05.33150 18 04 19.28 -06 55 37.7    ~6597 21.7 GVNEOCPI52
     ZTF03VS  C2019 06 05.33400 18 04 19.09 -06 55 43.1    ~6597 20.8 GVNEOCPI52
     ZTF03VS  C2019 06 05.33525 18 04 19.00 -06 55 45.4    ~6597 21.3 GVNEOCPI52
     ZTF03VS  C2019 06 05.33650 18 04 18.89 -06 55 47.9    ~6597 22.7 GVNEOCPI52
     ZTF03VS  C2019 06 06.29949 18 02 56.84 -07 30 21.5    ~6687 21.1 GVNEOCPI52
     ZTF03VS  C2019 06 06.30634 18 02 56.18 -07 30 36.6    ~6687 20.6 GVNEOCPI52
     ZTF03VS  C2019 06 06.31063 18 02 55.77 -07 30 45.6    ~6687       VNEOCPI52
     ZTF03VS  C2019 06 06.31330 18 02 55.55 -07 30 52.1    ~6687       VNEOCPI52
     ZTF03VS  C2019 06 07.34797 18 01 24.42 -08 08 42.5    ~678q       VNEOCPI52
     ZTF03VS  C2019 06 07.34922 18 01 24.29 -08 08 44.5    ~678q 21.0 GVNEOCPI52
     ZTF03VS  C2019 06 07.35172 18 01 24.08 -08 08 49.0    ~678q 21.2 GVNEOCPI52
     ZTF03VS pC2019 06 07larZNQl;for]GJ8#QV^(AE`_explanationgdew=+o:ga!_vO9MuL01
     ZTF03VS IC2019 06 07/0B3#yd3^FU)`nK$YHB?q\,Y7FUf_\bnG^'J8E]vElY+`^dt``9XL01
     ZTF03VS IC2019 06 07vE73EFy+(;SOT5SF47BZ)U?Dn)TCW2?V#RI,a,!n[/)5UrQRc-K-L01

Station data:
(F51) Pan-STARRS 1, Haleakala  (N20.707235 W156.255910)  US/Hawaii.
   Observers N. Primak, A. Schultz, S. Watters, J. Thiel, T. Goggia. Measurer
   PS1 Science Consortium. 1.8-m Ritchey-Chrétien + CCD.
(I41) Palomar Mountain--ZTF  (N33.357340 W116.859780)  US/California. 1.2-m
   f/2.44 Oschin Schmidt + CCD.
(I52) Steward Observatory, Mt. Lemmon Station  (N32.442547 W110.788920)
   US/Arizona.  Observers T. A. Pruyne, B. M. Africano, E. J. Christensen, G.
   A. Farneth, D. C. Fuls, A. R. Gibbs, A. D. Grauer, H. Groeller, J. A.
   Johnson, R. A. Kowalski, S. M. Larson, G. J. Leonard, R. L. Seaman, F. C.
   Shelly. 1.0-m reflector + CCD.
(L01) Višnjan Observatory, Tičan  (N45.290900 E13.749300)  Croatia.
   Observers K. Korlević, E. Pettarin. Measurer E. Pettarin. 1.0-m f/2.9
   reflector + CCD.

Orbital elements:  ZTF03VS
   Perihelion 2019 Apr 25.575536 +/- 0.0529 TT = 13:48:46 (JD 2458599.075536)
Epoch 2019 Jun  7.0 TT = JDT 2458641.5   Earth MOID: 0.5444   AutoNEOCP
M  17.37990934 +/- 0.023            (J2000 ecliptic)
n   0.40966714 +/- 6.26e-5          Peri.  144.17499 +/- 0.031
a   1.79548572 +/- 0.000183         Node    91.91043 +/- 0.0008
e   0.1470098 +/- 3.95e-5           Incl.   26.74897 +/- 0.0036
P   2.41/878.75d           H 20.5   G  0.15   U  6.3  
q 1.53153159 +/- 9.35e-5    Q 2.05943984 +/- 0.000277
From 34 observations 2019 Apr. 5-June 7; mean residual 0".37
Residuals in arcseconds: 
190405 F51  .01-  .15+    190604 I41  .32+  .26-    190606 I52  .29+  .31+    
190405 F51  .06+  .02+    190604 I41  .03+  .10-    190606 I52  .16-  .11+    
190405 F51  .02-  .05-    190604 I41  .00   .01-    190606 I52  .38-  .45+    
190405 F51  .03-  .11-    190604 I41  .04-  .05-    190606 I52  .00   .24-    
190604 I41  .38+  .34-    190604 I41  .06-  .41-    190607 I52  .22-  .78-    
190604 I41  .15+  .04-    190604 I41  .05+  .28-    190607 I52  .39-  .01-    
190604 I41  .04-  .31-    190604 I41  .30-  .08-    190607 I52  .01+  1.0+    
190604 I41  .20-  .07-    190604 I41  .06+  .43-    190607 L01  1.3-  .47-    
190604 I41  .14-  .04-    190605 I52  .57-  .19+    190607 L01  1.3+  .52-    
190604 I41  .27+  .25-    190605 I52  .06-  .12+    190607 L01  .39+  .45+    
190604 I41  .26+  .15+    190605 I52  .27+  .49+    
190604 I41  .25-  .14-    190605 I52  .31+  .66+    

Ephemerides (geocentric):
Date (UTC) HH   RA              Dec         delta   r     elong  mag " sig PA
---- -- -- --  -------------   -----------  ------ ------ -----  --- ---- ---
2019 06 15 19  17 47 44.939   -13 38 17.25  .54506 1.5552 169.8 20.6 .780 128
2019 06 15 20  17 47 40.639   -13 39 58.84  .54504 1.5553 169.9 20.6 .783 128
2019 06 15 21  17 47 36.337   -13 41 40.45  .54503 1.5553 169.9 20.6 .787 128
2019 06 15 22  17 47 32.033   -13 43 22.09  .54502 1.5554 170.0 20.6 .790 128
2019 06 15 23  17 47 27.728   -13 45 03.74  .54500 1.5554 170.0 20.6 .794 129
2019 06 16 00  17 47 23.421   -13 46 45.42  .54499 1.5554 170.0 20.6 .797 129
2019 06 16 01  17 47 19.113   -13 48 27.12  .54498 1.5555 170.1 20.6 .800 129
2019 06 16 02  17 47 14.803   -13 50 08.85  .54497 1.5555 170.1 20.6 .804 129
2019 06 16 03  17 47 10.491   -13 51 50.59  .54496 1.5555 170.2 20.6 .807 129
2019 06 16 04  17 47 06.177   -13 53 32.36  .54495 1.5556 170.2 20.6 .811 129
2019 06 16 05  17 47 01.863   -13 55 14.14  .54494 1.5556 170.3 20.6 .814 129
2019 06 16 06  17 46 57.546   -13 56 55.95  .54493 1.5557 170.3 20.6 .818 129
2019 06 16 07  17 46 53.228   -13 58 37.78  .54492 1.5557 170.3 20.6 .821 129
2019 06 16 08  17 46 48.908   -14 00 19.63  .54492 1.5557 170.4 20.6 .825 129
2019 06 16 09  17 46 44.587   -14 02 01.50  .54491 1.5558 170.4 20.6 .828 130
2019 06 16 10  17 46 40.264   -14 03 43.39  .54490 1.5558 170.5 20.6 .832 130
2019 06 16 11  17 46 35.940   -14 05 25.29  .54490 1.5558 170.5 20.6 .835 130
2019 06 16 12  17 46 31.614   -14 07 07.22  .54489 1.5559 170.5 20.6 .839 130
2019 06 16 13  17 46 27.287   -14 08 49.17  .54488 1.5559 170.6 20.6 .842 130
2019 06 16 14  17 46 22.958   -14 10 31.13  .54488 1.5560 170.6 20.6 .846 130
2019 06 16 15  17 46 18.628   -14 12 13.11  .54487 1.5560 170.7 20.6 .850 130
2019 06 16 16  17 46 14.296   -14 13 55.12  .54487 1.5560 170.7 20.6 .853 130
2019 06 16 17  17 46 09.963   -14 15 37.14  .54487 1.5561 170.7 20.6 .857 130
2019 06 16 18  17 46 05.628   -14 17 19.17  .54486 1.5561 170.8 20.6 .860 130
2019 06 16 19  17 46 01.292   -14 19 01.23  .54486 1.5561 170.8 20.6 .864 131
2019 06 16 20  17 45 56.955   -14 20 43.30  .54486 1.5562 170.8 20.6 .867 131
2019 06 16 21  17 45 52.616   -14 22 25.39  .54486 1.5562 170.9 20.6 .871 131
2019 06 16 22  17 45 48.276   -14 24 07.50  .54486 1.5563 170.9 20.6 .874 131
2019 06 16 23  17 45 43.934   -14 25 49.62  .54485 1.5563 171.0 20.6 .878 131
2019 06 17 00  17 45 39.591   -14 27 31.76  .54485 1.5563 171.0 20.6 .881 131
2019 06 17 01  17 45 35.247   -14 29 13.91  .54485 1.5564 171.0 20.6 .885 131
2019 06 17 02  17 45 30.902   -14 30 56.08  .54485 1.5564 171.1 20.6 .888 131
2019 06 17 03  17 45 26.555   -14 32 38.27  .54485 1.5565 171.1 20.6 .892 131
2019 06 17 04  17 45 22.207   -14 34 20.47  .54486 1.5565 171.1 20.6 .896 131
2019 06 17 05  17 45 17.857   -14 36 02.69  .54486 1.5565 171.2 20.6 .899 132
2019 06 17 06  17 45 13.506   -14 37 44.92  .54486 1.5566 171.2 20.6 .903 132
2019 06 17 07  17 45 09.154   -14 39 27.17  .54486 1.5566 171.2 20.6 .906 132
2019 06 17 08  17 45 04.801   -14 41 09.43  .54487 1.5566 171.3 20.6 .910 132
2019 06 17 09  17 45 00.447   -14 42 51.70  .54487 1.5567 171.3 20.6 .913 132
2019 06 17 10  17 44 56.091   -14 44 33.99  .54487 1.5567 171.3 20.6 .917 132
2019 06 17 11  17 44 51.734   -14 46 16.29  .54488 1.5568 171.4 20.6 .921 132
2019 06 17 12  17 44 47.376   -14 47 58.60  .54488 1.5568 171.4 20.6 .924 132
2019 06 17 13  17 44 43.017   -14 49 40.93  .54489 1.5568 171.4 20.6 .928 132
2019 06 17 14  17 44 38.656   -14 51 23.27  .54490 1.5569 171.5 20.6 .931 133
2019 06 17 15  17 44 34.295   -14 53 05.63  .54490 1.5569 171.5 20.6 .935 133
2019 06 17 16  17 44 29.932   -14 54 47.99  .54491 1.5570 171.5 20.6 .939 133
2019 06 17 17  17 44 25.568   -14 56 30.37  .54492 1.5570 171.6 20.6 .942 133
2019 06 17 18  17 44 21.203   -14 58 12.76  .54492 1.5570 171.6 20.6 .946 133